Regional Weather Roundup
Issued by NWS Mt. Holly, NJ

Home | Current Version | Previous Version | Text Only | Print | Product List | Glossary On
Versions: 1 2 3 4 5 6 7 8 9 10 11 12 13 14 15 16 17 18 19 20 21 22 23 24 25 26 27 28 29 30 31 32 33 34 35 36 37 38 39 40 41 42 43 44 45 46 47 48 49 50
350
ASUS41 KPHI 130312
RWRPHI

REGIONAL WEATHER ROUNDUP
NATIONAL WEATHER SERVICE MOUNT HOLLY NJ
1000 PM EST FRI FEB 12 2016

NOTE:  "FAIR" INDICATES FEW OR NO CLOUDS BELOW 12,000 FEET WITH NO
SIGNIFICANT WEATHER AND/OR OBSTRUCTIONS TO VISIBILITY.

 * = STATION DOES NOT REPORT PRECIPITATION (E.G. RAIN, SNOW, ETC.)
        OR FOG.

NJZ015>026-130400-
SOUTHERN NEW JERSEY

CITY           SKY/WX    TMP DP  RH WIND       PRES   REMARKS
POMONA         CLOUDY    22  18  85 NW3       29.99F
WILDWOOD*      CLOUDY    21  18  86 CALM      30.01S
MILLVILLE      CLOUDY    21  18  88 CALM      30.00S
WRIGHTSTOWN    CLOUDY    20  20  99 W5        29.95F WCI  13
TRENTON        CLOUDY    20  13  74 SW6       29.97F WCI  12

$$
NJZ001>014-130400-
NORTHERN NEW JERSEY

CITY           SKY/WX    TMP DP  RH WIND       PRES   REMARKS
SUSSEX         CLOUDY    20   6  55 SW6       29.91F WCI  12
ANDOVER*         N/A     19   7  59 SW10      29.92F WCI   7
MORRISTOWN     MOCLDY    21   9  58 W10       29.96F WCI  10
NEWARK         CLOUDY    22   9  57 W10       29.97F WCI  11
TETERBORO      CLOUDY    23   3  42 W10       29.95F WCI  12
CALDWELL       CLOUDY    22   4  46 W6        29.96S WCI  14
SOMERVILLE     CLOUDY    21  10  62 CALM      29.96S
ALLAIRE*       CLOUDY    21   9  58 W7        29.96F WCI  13
TOMS RIVER*    CLOUDY    21  16  79 W5        29.98F WCI  15

$$
PAZ043-044-047-054-055-060>062-066>071-130400-
EASTERN PENNSYLVANIA

CITY           SKY/WX    TMP DP  RH WIND       PRES   REMARKS
PHILADELPHIA   CLOUDY    23  16  74 SW7       30.00  WCI  15
NORTH PHILA    CLOUDY    22  17  81 CALM      30.00F
BLUE BELL*       N/A     21  12  68 CALM      29.97R
DOYLESTOWN     CLOUDY    19  10  68 W3        29.95F
QUAKERTOWN*    CLOUDY    19  12  73 W5        29.95F WCI  13
PERKASIE*      FLURRIES  19  10  68 SW3       29.95S
POTTSTOWN      CLOUDY    20  12  71 SW6       29.98S WCI  12
LANCASTER      LGT SNOW  20  17  88 W8        29.98R FOG     WCI  10
COATESVILLE    FLURRIES  19  16  86 CALM      29.96S
READING        LGT SNOW  19  14  81 W5        29.97S WCI  12
ALLENTOWN      LGT SNOW  20  12  71 W7        29.95F WCI  11
MOUNT POCONO   LGT SNOW  12   7  80 W9        29.79F WCI   0
HAZLETON       LGT SNOW  16  12  86 MISG      29.86F
LEHIGHTON      LGT SNOW  19  14  79 CALM      29.95F
WILKES BARRE   LGT SNOW  17  10  74 SW8       29.87F WCI   7

$$
DEZALL-MDZ008-012-015-019-020-130400-
DELAWARE AND EASTERN MARYLAND

CITY           SKY/WX    TMP DP  RH WIND       PRES   REMARKS
WILMINGTON     CLOUDY    22  16  78 SW5       30.00F WCI  16
DOVER          CLOUDY    24  21  90 W2        29.99F
GEORGETOWN     CLOUDY    23  20  88 CALM      30.01S
EASTON         CLOUDY    27  16  64 CALM      30.04S
PATUXENT       CLOUDY    26  18  71 SW3       30.01S
OCEAN CITY     CLOUDY    23  20  88 CALM      30.01S
WALLOPS ISLAND CLOUDY    25  20  81 N3        30.02S
CAMBRIDGE      CLOUDY    27  18  69 CALM      30.00S
SALISBURY      CLOUDY    24  18  77 CALM      30.00F

$$
PAZ001-021-NYZ056-072-MDZ011-DCZ001-130400-
OTHER NEARBY LOCATIONS

CITY           SKY/WX    TMP DP  RH WIND       PRES   REMARKS
HARRISBURG     LGT SNOW  21  17  84 W3        29.97F
STATE COLLEGE  MOCLDY    15  10  80 SW8       29.88F WCI   5
WILLIAMSPORT   CLOUDY    20  11  68 W6        29.92F WCI  12
BINGHAMTON     LGT SNOW  14   9  80 SW9       29.78F WCI   2
NEW YORK CITY  CLOUDY    23   4  44 W8        29.96F WCI  14
BALTIMORE      CLOUDY    24  15  68 W5        30.00S WCI  18
WASHINGTON DC  CLOUDY    29  12  49 SW6       30.03R WCI  23

$$




USA.gov is the U.S. government's official web portal to all federal, state and local government web resources and services.